Willow Beach, Nevada
Current Conditions -  °F | °C
As of 8:55 AM on Tuesday 27 Jan 2015 (Local Time) from KBVU Reporting Station
Overcast Overcast  
Wind Chill: 54°   Ceiling: 2600
Heat Index: 54°   Visibility: 10mi
Dew Point: 50°   Wind: 3mph
Humidity: 88%   Direction: 100°E
Pressure: 30.28"   Gusts: NA
Location:  35.9098°N, 114.758°W
Report Text: KBVU 271655Z AUTO 10003KT 10SM FEW020 OVC026 12/10 A3028 RMK AO2
Loading
Personal Weather Stations






























Interactive Weather Map New forecast layout! Learn more

10-Day Weather Forecast

Advertisements
Track Severe Weather on mobile